EW9826 Weather Reports


time (UTC)temp
C
wind
direction
speed
KPH
gust
KPH
rain 1hr
cm
rain 24hr
cm
rain mn
cm
humidity
%
barometer
mb
20260905123602 18 303 17.7 29.0 0.00 0.00 0.00 69 1022.7
20260905123103 18 289 11.3 22.5 0.00 0.00 0.00 70 1022.6
20260905122601 18 305 14.5 24.1 0.00 0.00 0.00 70 1022.7
20260905122102 18 299 16.1 25.7 0.00 0.00 0.00 69 1022.6
20260905121602 18 334 11.3 24.1 0.00 0.00 0.00 69 1022.5
20260905121103 18 304 16.1 25.7 0.00 0.00 0.00 69 1022.5
20260905115601 18 291 14.5 29.0 0.00 0.00 0.00 67 1022.5
20260905115102 18 302 14.5 27.4 0.00 0.00 0.00 67 1022.5
20260905114102 18 297 14.5 32.2 0.00 0.00 0.00 68 1022.5
20260905113601 18 283 14.5 35.4 0.00 0.03 0.00 68 1022.5
20260905112103 18 287 12.9 27.4 0.00 0.05 0.00 65 1022.1
20260905105102 18 304 14.5 25.7 0.00 0.13 0.00 68 1021.9
20260905104602 18 286 14.5 32.2 0.00 0.13 0.00 68 1021.9
20260905102102 19 288 14.5 29.0 0.00 0.28 0.00 67 1021.5
20260905101602 19 274 9.7 20.9 0.00 0.28 0.00 69 1021.4
20260905101103 18 299 14.5 32.2 0.00 0.28 0.00 70 1021.4
20260905092601 18 302 12.9 32.2 0.00 0.28 0.00 71 1020.8
20260905092102 18 289 11.3 24.1 0.00 0.28 0.00 71 1020.7
20260905090101 18 281 8.0 27.4 0.00 0.28 0.00 71 1020.5
20260905085601 18 296 14.5 25.7 0.00 0.28 0.00 71 1020.5
20260905085102 18 288 14.5 20.9 0.00 0.28 0.00 71 1020.5
20260905084601 18 287 14.5 27.4 0.00 0.28 0.00 70 1020.4
20260905084102 18 283 14.5 33.8 0.00 0.28 0.00 71 1020.4
20260905083601 18 272 16.1 25.7 0.00 0.28 0.00 73 1020.2
20260905083102 18 294 11.3 37.0 0.00 0.28 0.00 73 1020.0
20260905082603 18 278 14.5 24.1 0.00 0.28 0.00 73 1019.9
20260905082102 18 293 11.3 27.4 0.00 0.28 0.00 73 1019.9
20260905081601 18 302 12.9 24.1 0.00 0.28 0.00 74 1019.8
20260905081102 18 289 11.3 25.7 0.00 0.28 0.00 74 1019.6
20260905080101 18 295 14.5 29.0 0.00 0.28 0.00 75 1019.5
20260905075601 18 272 11.3 25.7 0.00 0.28 0.00 75 1019.4
20260905075102 18 275 8.0 25.7 0.00 0.28 0.00 75 1019.4
20260905074601 18 290 8.0 24.1 0.00 0.28 0.00 75 1019.4
20260905074102 18 283 14.5 27.4 0.00 0.28 0.00 74 1019.3
20260905073601 18 284 14.5 25.7 0.00 0.28 0.00 75 1019.2
20260905073102 18 289 16.1 25.7 0.00 0.28 0.00 74 1019.2
20260905072601 18 279 12.9 29.0 0.00 0.28 0.00 75 1019.2
20260905072104 18 282 8.0 20.9 0.00 0.28 0.00 76 1019.1
20260905071601 18 287 11.3 22.5 0.00 0.28 0.00 76 1018.9
20260905071102 17 289 11.3 22.5 0.00 0.28 0.00 76 1018.9
20260905064601 17 295 11.3 20.9 0.00 0.28 0.00 77 1018.7
20260905064102 17 268 14.5 27.4 0.00 0.28 0.00 77 1018.6
20260905063601 17 282 14.5 32.2 0.00 0.28 0.00 77 1018.6
20260905061601 17 275 11.3 24.1 0.00 0.28 0.00 78 1018.4
20260905061101 17 281 9.7 25.7 0.00 0.28 0.00 78 1018.3
20260905060101 17 277 9.7 22.5 0.00 0.28 0.00 79 1018.2
20260905055602 17 295 8.0 19.3 0.00 0.28 0.00 79 1018.1
20260905055102 17 290 8.0 16.1 0.00 0.28 0.00 79 1018.0
20260905053602 17 282 9.7 14.5 0.00 0.28 0.00 79 1017.9
20260905051601 17 266 8.0 12.9 0.00 0.28 0.00 79 1017.7
20260905051101 17 294 6.4 19.3 0.00 0.28 0.00 79 1017.6
20260905044600 17 250 8.0 19.3 0.00 0.28 0.00 78 1017.3
20260905043101 17 278 6.4 19.3 0.00 0.28 0.00 78 1017.3
20260905042601 17 281 8.0 16.1 0.00 0.28 0.00 78 1017.3
20260905042101 17 290 8.0 14.5 0.00 0.28 0.00 78 1017.3
20260905041601 17 270 8.0 16.1 0.00 0.28 0.00 78 1017.2
20260905041102 17 292 8.0 14.5 0.00 0.28 0.00 78 1017.2
20260905033601 17 281 4.8 12.9 0.00 0.28 0.00 77 1016.9
20260905033101 17 267 4.8 11.3 0.00 0.28 0.00 77 1016.9
20260905031601 17 285 8.0 14.5 0.00 0.28 0.00 77 1016.9
20260905031102 17 275 4.8 16.1 0.00 0.28 0.00 77 1016.9
20260905030100 17 267 8.0 14.5 0.00 0.28 0.00 77 1016.8
20260905025600 17 262 6.4 12.9 0.00 0.28 0.00 76 1016.8
20260905022600 17 261 6.4 14.5 0.00 0.28 0.00 74 1016.6
20260905022102 17 273 6.4 11.3 0.00 0.28 0.00 74 1016.5
20260905012101 17 317 4.8 20.9 0.00 0.28 0.00 73 1016.3
20260905011600 17 271 9.7 19.3 0.00 0.28 0.00 73 1016.3
20260905011101 17 286 9.7 16.1 0.00 0.28 0.00 74 1016.3
20260905003101 18 297 8.0 14.5 0.00 0.28 0.00 73 1016.3
20260905002601 18 303 6.4 14.5 0.00 0.28 0.00 72 1016.3
20260905001101 18 286 9.7 19.3 0.00 0.28 0.00 73 1016.2
20260904234100 18 287 9.7 22.5 0.00 0.28 0.00 71 1015.9
20260904233600 18 281 9.7 20.9 0.00 0.28 0.00 71 1015.9
20260904231101 18 290 8.0 22.5 0.00 0.28 0.00 71 1015.8
20260904225101 18 284 9.7 14.5 0.00 0.28 0.00 70 1015.8
20260904224601 18 293 8.0 19.3 0.00 0.28 0.00 69 1015.8
20260904224101 18 286 11.3 19.3 0.00 0.28 0.00 69 1015.8
20260904222601 18 294 9.7 19.3 0.00 0.28 0.00 68 1015.7
20260904220100 18 295 9.7 19.3 0.00 0.28 0.00 69 1015.6
20260904215600 18 290 6.4 16.1 0.00 0.28 0.28 68 1015.4
20260904215100 18 285 12.9 22.5 0.00 0.28 0.28 67 1015.4
20260904214600 18 292 8.0 22.5 0.00 0.28 0.28 67 1015.4
20260904214101 18 320 14.5 27.4 0.00 0.28 0.28 67 1015.4
20260904211600 18 274 8.0 19.3 0.00 0.28 0.28 68 1015.3
20260904211100 18 280 9.7 27.4 0.00 0.28 0.28 68 1015.3
20260904210100 18 300 11.3 19.3 0.00 0.28 0.28 68 1015.2
20260904205559 18 293 9.7 19.3 0.00 0.28 0.28 69 1015.0
20260904195559 18 287 8.0 25.7 0.00 0.28 0.28 69 1014.8
20260904195101 18 267 14.5 22.5 0.00 0.28 0.28 69 1014.8
20260904194600 18 272 9.7 16.1 0.00 0.28 0.28 69 1014.8
20260904194100 18 296 11.3 19.3 0.00 0.28 0.28 69 1014.7
20260904193601 18 299 9.7 19.3 0.00 0.28 0.28 68 1014.7
20260904192101 18 288 12.9 24.1 0.00 0.28 0.28 68 1014.4
20260904185101 18 276 9.7 14.5 0.00 0.28 0.28 70 1014.2
20260904184559 18 286 8.0 19.3 0.00 0.28 0.28 70 1014.1
20260904183100 18 282 8.0 16.1 0.00 0.28 0.28 71 1013.8
20260904182559 18 293 9.7 19.3 0.00 0.28 0.28 71 1013.9
20260904180100 18 306 8.0 20.9 0.00 0.28 0.28 71 1013.8
20260904175600 18 289 9.7 20.9 0.00 0.28 0.28 71 1013.8
20260904174100 19 283 11.3 22.5 0.00 0.28 0.28 73 1013.5
20260904173600 19 299 9.7 22.5 0.00 0.28 0.28 73 1013.6
20260904173101 19 308 11.3 24.1 0.00 0.28 0.28 74 1013.5
20260904172559 19 280 8.0 19.3 0.00 0.28 0.28 75 1013.6
20260904172101 19 306 9.7 19.3 0.00 0.28 0.28 75 1013.3
20260904165600 19 293 9.7 19.3 0.00 0.28 0.28 73 1013.0
20260904164600 19 294 14.5 25.7 0.00 0.28 0.28 71 1013.1
20260904164100 19 289 16.1 27.4 0.00 0.28 0.28 73 1013.2
20260904163559 19 284 14.5 24.1 0.00 0.28 0.28 74 1012.9
20260904163100 19 273 11.3 22.5 0.00 0.28 0.28 74 1012.8
20260904162600 19 292 9.7 25.7 0.00 0.28 0.28 74 1012.8
20260904162100 19 290 17.7 32.2 0.00 0.28 0.28 74 1012.7
20260904161559 19 292 11.3 25.7 0.00 0.28 0.28 76 1012.7
20260904161101 20 294 16.1 29.0 0.00 0.28 0.28 76 1012.4
20260904154100 20 245 8.0 14.5 0.00 0.28 0.28 74 1012.2
20260904153559 20 267 11.3 24.1 0.00 0.28 0.28 75 1012.3
20260904153100 20 286 14.5 22.5 0.00 0.28 0.28 76 1012.5
20260904152559 20 284 14.5 25.7 0.00 0.28 0.28 76 1012.7
20260904150059 20 291 12.9 29.0 0.00 0.28 0.28 79 1012.2
20260904145600 20 280 9.7 22.5 0.00 0.28 0.28 80 1012.2
20260904142559 20 290 12.9 22.5 0.00 0.28 0.28 83 1012.0
20260904142100 20 262 11.3 20.9 0.00 0.28 0.28 82 1011.7
20260904141600 20 273 9.7 19.3 0.00 0.28 0.28 82 1011.7
20260904141101 20 281 11.3 22.5 0.00 0.28 0.28 83 1011.7
20260904140059 20 293 16.1 27.4 0.00 0.28 0.28 82 1011.6
20260904135600 20 272 14.5 29.0 0.00 0.28 0.28 82 1011.6
20260904135101 20 293 19.3 40.2 0.00 0.28 0.28 81 1011.7
20260904134600 20 288 8.0 32.2 0.00 0.28 0.28 82 1011.7
20260904133100 20 289 12.9 25.7 0.00 0.28 0.28 84 1011.2
20260904132559 20 273 14.5 29.0 0.00 0.28 0.28 85 1011.3
20260904132059 19 275 14.5 24.1 0.00 0.28 0.28 86 1011.2
20260904131559 19 269 11.3 24.1 0.00 0.28 0.28 86 1011.1
20260904131101 19 257 8.0 27.4 0.00 0.28 0.28 86 1011.1
20260904124559 19 261 9.7 24.1 0.00 0.28 0.28 85 1011.1
20260904124100 19 263 11.3 29.0 0.00 0.28 0.28 85 1010.7